When you browse on this site, cookies collect data to enhance your experience and personalize the content and advertising you see.
Visit our Privacy Policy to learn more. By continuing to use the site, you agree to this use of cookies and data.
  • In Portugal
  • List of Countries
  • For 7 days
  • Water Temperature
  • Weather Map
  • Weather Widgets
  • user-avatar
    Login

    Hourly Weather Luksor

    Today, 23 September, Monday

    Time Temperature Precipitation Wind Pressure Humidity
    00:00 +29°C° 0 mm 4 mps 749 mmHg 36%
    01:00 +28°C° 0 mm 3 mps 749 mmHg 38%
    02:00 +27°C° 0 mm 3 mps 749 mmHg 40%
    03:00 +26°C° 0 mm 3 mps 749 mmHg 43%
    04:00 +26°C° 0 mm 3 mps 749 mmHg 45%
    05:00 +25°C° 0 mm 3 mps 749 mmHg 48%
    06:00 +26°C° 0 mm 4 mps 750 mmHg 45%
    07:00 +28°C° 0 mm 4 mps 750 mmHg 42%
    08:00 +30°C° 0 mm 4 mps 750 mmHg 38%
    09:00 +33°C° 0 mm 5 mps 750 mmHg 32%
    10:00 +36°C° 0 mm 5 mps 750 mmHg 25%
    11:00 +39°C° 0 mm 6 mps 750 mmHg 19%
    12:00 +41°C° 0 mm 6 mps 749 mmHg 17%
    13:00 +43°C° 0 mm 7 mps 749 mmHg 15%
    14:00 +44°C° 0 mm 7 mps 748 mmHg 12%
    15:00 +43°C° 0 mm 7 mps 748 mmHg 13%
    16:00 +41°C° 0 mm 7 mps 748 mmHg 13%
    17:00 +40°C° 0 mm 7 mps 748 mmHg 13%
    18:00 +38°C° 0 mm 6 mps 748 mmHg 16%
    19:00 +35°C° 0 mm 6 mps 749 mmHg 19%
    20:00 +33°C° 0 mm 5 mps 750 mmHg 21%
    21:00 +32°C° 0 mm 5 mps 749 mmHg 24%
    22:00 +30°C° 0 mm 4 mps 749 mmHg 26%
    23:00 +29°C° 0 mm 3 mps 749 mmHg 29%

    Tomorrow, 24 September, Tuesday

    Time Temperature Precipitation Wind Pressure Humidity
    00:00 +28°C° 0 mm 3 mps 749 mmHg 31%
    01:00 +27°C° 0 mm 2 mps 749 mmHg 34%
    02:00 +26°C° 0 mm 2 mps 749 mmHg 36%
    03:00 +26°C° 0 mm 2 mps 749 mmHg 39%
    04:00 +25°C° 0 mm 2 mps 749 mmHg 41%
    05:00 +25°C° 0 mm 2 mps 749 mmHg 43%
    06:00 +26°C° 0 mm 3 mps 749 mmHg 40%
    07:00 +28°C° 0 mm 3 mps 750 mmHg 37%
    08:00 +30°C° 0 mm 3 mps 750 mmHg 34%
    09:00 +34°C° 0 mm 4 mps 750 mmHg 27%
    10:00 +36°C° 0 mm 4 mps 750 mmHg 21%
    11:00 +40°C° 0 mm 5 mps 749 mmHg 15%
    12:00 +41°C° 0 mm 5 mps 749 mmHg 13%
    13:00 +42°C° 0 mm 5 mps 748 mmHg 12%
    14:00 +44°C° 0 mm 6 mps 748 mmHg 11%
    15:00 +42°C° 0 mm 6 mps 748 mmHg 11%
    16:00 +41°C° 0 mm 6 mps 747 mmHg 11%
    17:00 +40°C° 0 mm 6 mps 747 mmHg 11%
    18:00 +38°C° 0 mm 6 mps 748 mmHg 13%
    19:00 +35°C° 0 mm 6 mps 748 mmHg 15%
    20:00 +33°C° 0 mm 6 mps 749 mmHg 18%
    21:00 +32°C° 0 mm 5 mps 749 mmHg 20%
    22:00 +30°C° 0 mm 5 mps 749 mmHg 23%
    23:00 +29°C° 0 mm 4 mps 749 mmHg 26%

    Day after tomorrow, 25 September, Wednesday

    Time Temperature Precipitation Wind Pressure Humidity
    00:00 +28°C° 0 mm 4 mps 749 mmHg 29%
    01:00 +26°C° 0 mm 3 mps 749 mmHg 32%
    02:00 +25°C° 0 mm 2 mps 748 mmHg 34%
    03:00 +25°C° 0 mm 2 mps 748 mmHg 36%
    04:00 +24°C° 0 mm 2 mps 748 mmHg 38%
    05:00 +23°C° 0 mm 2 mps 749 mmHg 40%
    06:00 +25°C° 0 mm 2 mps 749 mmHg 36%
    07:00 +27°C° 0 mm 3 mps 749 mmHg 32%
    08:00 +29°C° 0 mm 3 mps 750 mmHg 28%
    09:00 +33°C° 0 mm 4 mps 750 mmHg 24%
    10:00 +35°C° 0 mm 5 mps 749 mmHg 19%
    11:00 +39°C° 0 mm 6 mps 749 mmHg 14%
    12:00 +40°C° 0 mm 6 mps 749 mmHg 11%
    13:00 +42°C° 0 mm 6 mps 748 mmHg 9%
    14:00 +44°C° 0 mm 6 mps 748 mmHg 6%
    15:00 +42°C° 0 mm 6 mps 748 mmHg 6%
    16:00 +41°C° 0 mm 6 mps 747 mmHg 6%
    17:00 +40°C° 0 mm 6 mps 747 mmHg 6%
    18:00 +37°C° 0 mm 5 mps 748 mmHg 7%
    19:00 +34°C° 0 mm 5 mps 749 mmHg 9%
    20:00 +32°C° 0 mm 4 mps 749 mmHg 11%
    21:00 +30°C° 0 mm 4 mps 749 mmHg 12%
    22:00 +28°C° 0 mm 3 mps 750 mmHg 13%
    23:00 +27°C° 0 mm 3 mps 750 mmHg 14%

    26 September, Thursday

    Time Temperature Precipitation Wind Pressure Humidity
    00:00 +26°C° 0 mm 2 mps 749 mmHg 16%
    01:00 +26°C° 0 mm 2 mps 749 mmHg 17%
    02:00 +25°C° 0 mm 2 mps 749 mmHg 19%
    03:00 +24°C° 0 mm 2 mps 749 mmHg 20%
    04:00 +23°C° 0 mm 2 mps 749 mmHg 22%
    05:00 +23°C° 0 mm 2 mps 749 mmHg 23%
    06:00 +25°C° 0 mm 2 mps 750 mmHg 20%
    07:00 +28°C° 0 mm 2 mps 750 mmHg 18%
    08:00 +30°C° 0 mm 2 mps 751 mmHg 15%
    09:00 +34°C° 0 mm 2 mps 750 mmHg 13%
    10:00 +36°C° 0 mm 2 mps 750 mmHg 10%
    11:00 +39°C° 0 mm 2 mps 750 mmHg 8%
    12:00 +40°C° 0 mm 3 mps 749 mmHg 7%
    13:00 +42°C° 0 mm 3 mps 749 mmHg 5%
    14:00 +44°C° 0 mm 3 mps 748 mmHg 4%
    15:00 +43°C° 0 mm 3 mps 748 mmHg 4%
    16:00 +41°C° 0 mm 2 mps 748 mmHg 4%
    17:00 +39°C° 0 mm 2 mps 747 mmHg 5%
    18:00 +37°C° 0 mm 2 mps 748 mmHg 7%
    19:00 +35°C° 0 mm 2 mps 748 mmHg 9%
    20:00 +31°C° 0 mm 3 mps 749 mmHg 11%
    21:00 +30°C° 0 mm 2 mps 749 mmHg 14%
    22:00 +29°C° 0 mm 2 mps 749 mmHg 17%
    23:00 +28°C° 0 mm 2 mps 749 mmHg 20%

    27 September, Friday

    Time Temperature Precipitation Wind Pressure Humidity
    00:00 +28°C° 0 mm 2 mps 749 mmHg 21%
    01:00 +27°C° 0 mm 2 mps 749 mmHg 22%
    02:00 +26°C° 0 mm 1 mps 749 mmHg 23%
    03:00 +26°C° 0 mm 2 mps 749 mmHg 24%
    04:00 +26°C° 0 mm 2 mps 749 mmHg 26%
    05:00 +25°C° 0 mm 2 mps 749 mmHg 28%
    06:00 +28°C° 0 mm 2 mps 749 mmHg 25%
    07:00 +30°C° 0 mm 2 mps 750 mmHg 23%
    08:00 +34°C° 0 mm 2 mps 750 mmHg 21%
    09:00 +36°C° 0 mm 2 mps 750 mmHg 18%
    10:00 +38°C° 0 mm 3 mps 750 mmHg 15%
    11:00 +42°C° 0 mm 3 mps 749 mmHg 12%
    12:00 +43°C° 0 mm 3 mps 749 mmHg 11%
    13:00 +44°C° 0 mm 3 mps 748 mmHg 9%
    14:00 +45°C° 0 mm 3 mps 747 mmHg 8%
    15:00 +44°C° 0 mm 3 mps 747 mmHg 8%
    16:00 +43°C° 0 mm 3 mps 747 mmHg 8%
    17:00 +42°C° 0 mm 3 mps 747 mmHg 9%
    18:00 +40°C° 0 mm 4 mps 748 mmHg 11%
    19:00 +37°C° 0 mm 4 mps 748 mmHg 13%
    20:00 +35°C° 0 mm 4 mps 748 mmHg 15%
    21:00 +34°C° 0 mm 4 mps 749 mmHg 18%
    22:00 +33°C° 0 mm 3 mps 749 mmHg 21%
    23:00 +31°C° 0 mm 3 mps 749 mmHg 23%

    28 September, Saturday

    Time Temperature Precipitation Wind Pressure Humidity
    00:00 +30°C° 0 mm 3 mps 749 mmHg 26%
    01:00 +29°C° 0 mm 3 mps 749 mmHg 29%
    02:00 +29°C° 0 mm 3 mps 749 mmHg 32%
    03:00 +28°C° 0 mm 3 mps 749 mmHg 35%
    04:00 +27°C° 0 mm 3 mps 749 mmHg 39%
    05:00 +27°C° 0 mm 3 mps 749 mmHg 42%
    06:00 +29°C° 0 mm 2 mps 749 mmHg 38%
    07:00 +30°C° 0 mm 2 mps 750 mmHg 35%
    08:00 +32°C° 0 mm 2 mps 750 mmHg 31%
    09:00 +35°C° 0 mm 3 mps 750 mmHg 27%
    10:00 +38°C° 0 mm 4 mps 750 mmHg 23%
    11:00 +41°C° 0 mm 5 mps 750 mmHg 18%
    12:00 +42°C° 0 mm 5 mps 749 mmHg 16%
    13:00 +43°C° 0 mm 5 mps 748 mmHg 14%
    14:00 +45°C° 0 mm 5 mps 748 mmHg 12%
    15:00 +43°C° 0 mm 5 mps 748 mmHg 13%
    16:00 +42°C° 0 mm 5 mps 748 mmHg 14%
    17:00 +41°C° 0 mm 5 mps 747 mmHg 15%
    18:00 +39°C° 0 mm 5 mps 748 mmHg 18%
    19:00 +36°C° 0 mm 5 mps 748 mmHg 22%
    20:00 +34°C° 0 mm 5 mps 749 mmHg 25%
    21:00 +33°C° 0 mm 5 mps 749 mmHg 27%
    22:00 +32°C° 0 mm 4 mps 749 mmHg 29%
    23:00 +30°C° 0 mm 3 mps 749 mmHg 31%
    Show more